Time,TemperatureF,DewpointF,PressureIn,WindDirection,WindDirectionDegrees,WindSpeedMPH,WindSpeedGustMPH,Humidity,HourlyPrecipIn,Conditions,Clouds,dailyrainin,SoftwareType,DateUTC
2013-05-02 00:00:00,45.6,33.3,30.19,ESE,114,0.0,16.0,62,0.00,,,0.00,WeatherDisplay:10.37,2013-05-01 23:00:00,
2013-05-02 00:05:00,45.4,33.5,30.19,ESE,114,0.0,1.0,63,0.00,,,0.00,WeatherDisplay:10.37,2013-05-01 23:05:00,
2013-05-02 00:10:00,45.1,33.2,30.19,ESE,113,2.0,3.0,63,0.00,,,0.00,WeatherDisplay:10.37,2013-05-01 23:10:00,
2013-05-02 00:15:00,44.8,33.7,30.19,ESE,113,1.0,3.0,65,0.00,,,0.00,WeatherDisplay:10.37,2013-05-01 23:15:00,
2013-05-02 00:20:00,44.5,33.8,30.18,ESE,112,0.0,2.0,66,0.00,,,0.00,WeatherDisplay:10.37,2013-05-01 23:20:00,
2013-05-02 00:25:00,44.2,33.5,30.18,ESE,112,0.0,3.0,66,0.00,,,0.00,WeatherDisplay:10.37,2013-05-01 23:25:00,
2013-05-02 00:30:00,43.8,33.9,30.18,ESE,112,0.0,2.0,68,0.00,,,0.00,WeatherDisplay:10.37,2013-05-01 23:30:00,
2013-05-02 00:35:00,43.5,33.6,30.18,ESE,112,0.0,1.0,68,0.00,,,0.00,WeatherDisplay:10.37,2013-05-01 23:35:00,
2013-05-02 00:40:00,43.1,34.0,30.18,ESE,112,0.0,1.0,70,0.00,,,0.00,WeatherDisplay:10.37,2013-05-01 23:40:00,
2013-05-02 00:45:00,42.7,33.3,30.18,ESE,112,0.0,1.0,69,0.00,,,0.00,WeatherDisplay:10.37,2013-05-01 23:45:00,
2013-05-02 00:50:00,42.4,33.3,30.19,ESE,112,0.0,0.0,70,0.00,,,0.00,WeatherDisplay:10.37,2013-05-01 23:50:00,
2013-05-02 00:55:00,41.9,32.9,30.19,ESE,112,0.0,0.0,70,0.00,,,0.00,WeatherDisplay:10.37,2013-05-01 23:55:00,
2013-05-02 01:00:00,41.5,33.1,30.19,ESE,112,0.0,0.0,72,0.00,,,0.00,WeatherDisplay:10.37,2013-05-02 00:00:00,
2013-05-02 01:05:00,40.8,32.5,30.19,ESE,112,0.0,0.0,72,0.00,,,0.00,WeatherDisplay:10.37,2013-05-02 00:05:00,
2013-05-02 01:10:00,40.0,32.4,30.19,ESE,112,0.0,0.0,74,0.00,,,0.00,WeatherDisplay:10.37,2013-05-02 00:10:00,
2013-05-02 01:15:00,39.3,32.1,30.18,ESE,112,0.0,0.0,75,0.00,,,0.00,WeatherDisplay:10.37,2013-05-02 00:15:00,
2013-05-02 01:20:00,38.8,31.9,30.18,ESE,112,0.0,0.0,76,0.00,,,0.00,WeatherDisplay:10.37,2013-05-02 00:20:00,
2013-05-02 01:25:00,38.4,31.8,30.18,ESE,112,0.0,0.0,77,0.00,,,0.00,WeatherDisplay:10.37,2013-05-02 00:25:00,
2013-05-02 01:30:00,38.0,31.7,30.18,ESE,112,0.0,0.0,78,0.00,,,0.00,WeatherDisplay:10.37,2013-05-02 00:30:00,
2013-05-02 01:35:00,37.5,31.6,30.18,ESE,112,0.0,0.0,79,0.00,,,0.00,WeatherDisplay:10.37,2013-05-02 00:35:00,
2013-05-02 01:40:00,37.0,31.4,30.18,ESE,112,0.0,0.0,80,0.00,,,0.00,WeatherDisplay:10.37,2013-05-02 00:40:00,
2013-05-02 01:45:00,36.6,31.3,30.18,ESE,112,0.0,0.0,81,0.00,,,0.00,WeatherDisplay:10.37,2013-05-02 00:45:00,
2013-05-02 01:50:00,36.3,31.3,30.18,ESE,112,0.0,0.0,82,0.00,,,0.00,WeatherDisplay:10.37,2013-05-02 00:50:00,
2013-05-02 01:55:00,35.9,30.9,30.18,ESE,112,0.0,0.0,82,0.00,,,0.00,WeatherDisplay:10.37,2013-05-02 00:55:00,
2013-05-02 02:00:00,35.5,30.9,30.18,ESE,112,0.0,0.0,83,0.00,,,0.00,WeatherDisplay:10.37,2013-05-02 01:00:00,
2013-05-02 02:05:00,35.2,30.6,30.18,ESE,112,0.0,0.0,83,0.00,,,0.00,WeatherDisplay:10.37,2013-05-02 01:05:00,
2013-05-02 02:10:00,35.0,30.7,30.18,ESE,112,0.0,0.0,84,0.00,,,0.00,WeatherDisplay:10.37,2013-05-02 01:10:00,
2013-05-02 02:15:00,34.8,30.5,30.18,ESE,112,0.0,0.0,84,0.00,,,0.00,WeatherDisplay:10.37,2013-05-02 01:15:00,
2013-05-02 02:20:00,34.7,30.4,30.18,ESE,112,0.0,0.0,84,0.00,,,0.00,WeatherDisplay:10.37,2013-05-02 01:20:00,
2013-05-02 02:25:00,34.5,30.4,30.18,ESE,112,0.0,0.0,85,0.00,,,0.00,WeatherDisplay:10.37,2013-05-02 01:25:00,
2013-05-02 02:30:00,34.3,30.3,30.18,ESE,112,0.0,0.0,85,0.00,,,0.00,WeatherDisplay:10.37,2013-05-02 01:30:00,
2013-05-02 02:35:00,34.1,30.0,30.18,ESE,112,0.0,0.0,85,0.00,,,0.00,WeatherDisplay:10.37,2013-05-02 01:35:00,
2013-05-02 02:40:00,33.8,30.1,30.18,ESE,112,0.0,0.0,86,0.00,,,0.00,WeatherDisplay:10.37,2013-05-02 01:40:00,
2013-05-02 02:45:00,33.6,30.1,30.18,ESE,112,0.0,0.0,87,0.00,,,0.00,WeatherDisplay:10.37,2013-05-02 01:45:00,
2013-05-02 02:50:00,33.5,30.0,30.17,ESE,112,0.0,0.0,87,0.00,,,0.00,WeatherDisplay:10.37,2013-05-02 01:50:00,
2013-05-02 02:55:00,33.4,29.9,30.17,ESE,112,0.0,0.0,87,0.00,,,0.00,WeatherDisplay:10.37,2013-05-02 01:55:00,
2013-05-02 03:00:00,33.3,30.1,30.17,ESE,112,0.0,0.0,88,0.00,,,0.00,WeatherDisplay:10.37,2013-05-02 02:00:00,
2013-05-02 03:10:00,33.0,29.8,30.17,ESE,112,0.0,0.0,88,0.00,,,0.00,WeatherDisplay:10.37,2013-05-02 02:10:00,
2013-05-02 03:15:00,32.8,29.6,30.17,ESE,112,0.0,1.0,88,0.00,,,0.00,WeatherDisplay:10.37,2013-05-02 02:15:00,
2013-05-02 03:20:00,32.6,29.7,30.17,ESE,112,0.0,1.0,89,0.00,,,0.00,WeatherDisplay:10.37,2013-05-02 02:20:00,
2013-05-02 03:25:00,32.6,29.7,30.17,ESE,112,0.0,0.0,89,0.00,,,0.00,WeatherDisplay:10.37,2013-05-02 02:25:00,
2013-05-02 03:30:00,32.5,29.3,30.17,ESE,112,0.0,0.0,88,0.00,,,0.00,WeatherDisplay:10.37,2013-05-02 02:30:00,
2013-05-02 03:40:00,32.3,29.4,30.17,ESE,112,0.0,0.0,89,0.00,,,0.00,WeatherDisplay:10.37,2013-05-02 02:40:00,
2013-05-02 03:45:00,32.2,29.3,30.17,ESE,112,0.0,0.0,89,0.00,,,0.00,WeatherDisplay:10.37,2013-05-02 02:45:00,
2013-05-02 03:50:00,32.1,29.2,30.17,ESE,112,0.0,0.0,89,0.00,,,0.00,WeatherDisplay:10.37,2013-05-02 02:50:00,
2013-05-02 03:55:00,32.0,29.1,30.17,ESE,112,0.0,0.0,89,0.00,,,0.00,WeatherDisplay:10.37,2013-05-02 02:55:00,
2013-05-02 04:00:00,31.9,29.3,30.17,ESE,112,0.0,0.0,90,0.00,,,0.00,WeatherDisplay:10.37,2013-05-02 03:00:00,
2013-05-02 04:10:00,32.0,29.4,30.17,ESE,112,0.0,0.0,90,0.00,,,0.00,WeatherDisplay:10.37,2013-05-02 03:10:00,
2013-05-02 04:15:00,31.9,29.3,30.17,ESE,112,0.0,0.0,90,0.00,,,0.00,WeatherDisplay:10.37,2013-05-02 03:15:00,
2013-05-02 04:20:00,31.8,29.2,30.17,ESE,112,0.0,0.0,90,0.00,,,0.00,WeatherDisplay:10.37,2013-05-02 03:20:00,
2013-05-02 04:25:00,31.7,29.1,30.17,ESE,112,0.0,0.0,90,0.00,,,0.00,WeatherDisplay:10.37,2013-05-02 03:25:00,
2013-05-02 04:30:00,31.7,29.1,30.17,ESE,112,0.0,1.0,90,0.00,,,0.00,WeatherDisplay:10.37,2013-05-02 03:30:00,
2013-05-02 04:40:00,31.8,29.5,30.17,ESE,112,0.0,0.0,91,0.00,,,0.00,WeatherDisplay:10.37,2013-05-02 03:40:00,
2013-05-02 04:45:00,31.7,29.1,30.17,ESE,112,0.0,0.0,90,0.00,,,0.00,WeatherDisplay:10.37,2013-05-02 03:45:00,
2013-05-02 04:50:00,31.6,29.0,30.17,ESE,112,0.0,0.0,90,0.00,,,0.00,WeatherDisplay:10.37,2013-05-02 03:50:00,
2013-05-02 04:55:00,31.6,29.0,30.17,ESE,112,0.0,0.0,90,0.00,,,0.00,WeatherDisplay:10.37,2013-05-02 03:55:00,
2013-05-02 05:00:00,31.5,28.9,30.17,ESE,112,0.0,0.0,90,0.00,,,0.00,WeatherDisplay:10.37,2013-05-02 04:00:00,
2013-05-02 05:05:00,31.5,29.2,30.17,ESE,112,0.0,0.0,91,0.00,,,0.00,WeatherDisplay:10.37,2013-05-02 04:05:00,
2013-05-02 05:15:00,31.3,28.7,30.17,ESE,106,0.0,3.0,90,0.00,,,0.00,WeatherDisplay:10.37,2013-05-02 04:15:00,
2013-05-02 05:20:00,31.2,28.9,30.17,ESE,112,0.0,1.0,91,0.00,,,0.00,WeatherDisplay:10.37,2013-05-02 04:20:00,
2013-05-02 05:25:00,31.2,28.6,30.17,ESE,112,0.0,0.0,90,0.00,,,0.00,WeatherDisplay:10.37,2013-05-02 04:25:00,
2013-05-02 05:30:00,31.1,28.8,30.17,ESE,112,0.0,0.0,91,0.00,,,0.00,WeatherDisplay:10.37,2013-05-02 04:30:00,
2013-05-02 05:35:00,31.0,28.7,30.17,ESE,112,0.0,0.0,91,0.00,,,0.00,WeatherDisplay:10.37,2013-05-02 04:35:00,
2013-05-02 05:40:00,30.9,28.6,30.17,ESE,112,0.0,0.0,91,0.00,,,0.00,WeatherDisplay:10.37,2013-05-02 04:40:00,
2013-05-02 05:45:00,30.8,28.5,30.17,ESE,112,0.0,0.0,91,0.00,,,0.00,WeatherDisplay:10.37,2013-05-02 04:45:00,
2013-05-02 05:50:00,30.8,28.4,30.17,ESE,112,0.0,0.0,91,0.00,,,0.00,WeatherDisplay:10.37,2013-05-02 04:50:00,
2013-05-02 05:55:00,30.7,28.4,30.17,ESE,112,0.0,0.0,91,0.00,,,0.00,WeatherDisplay:10.37,2013-05-02 04:55:00,
2013-05-02 06:00:00,30.7,28.4,30.17,ESE,112,0.0,0.0,91,0.00,,,0.00,WeatherDisplay:10.37,2013-05-02 05:00:00,
2013-05-02 06:10:00,30.7,28.7,30.17,ESE,112,0.0,0.0,92,0.00,,,0.00,WeatherDisplay:10.37,2013-05-02 05:10:00,
2013-05-02 06:15:00,30.8,28.8,30.17,ESE,112,0.0,0.0,92,0.00,,,0.00,WeatherDisplay:10.37,2013-05-02 05:15:00,
2013-05-02 06:20:00,30.9,28.9,30.18,ESE,112,0.0,0.0,92,0.00,,,0.00,WeatherDisplay:10.37,2013-05-02 05:20:00,
2013-05-02 06:25:00,31.1,29.3,30.18,ESE,112,0.0,0.0,93,0.00,,,0.00,WeatherDisplay:10.37,2013-05-02 05:25:00,
2013-05-02 06:30:00,31.3,29.5,30.18,ESE,107,0.0,0.0,93,0.00,,,0.00,WeatherDisplay:10.37,2013-05-02 05:30:00,
2013-05-02 06:35:00,31.5,29.7,30.18,ESE,103,0.0,0.0,93,0.00,,,0.00,WeatherDisplay:10.37,2013-05-02 05:35:00,
2013-05-02 06:40:00,31.8,30.0,30.18,ESE,103,0.0,0.0,93,0.00,,,0.00,WeatherDisplay:10.37,2013-05-02 05:40:00,
2013-05-02 06:45:00,32.4,30.9,30.18,ESE,103,0.0,0.0,94,0.00,,,0.00,WeatherDisplay:10.37,2013-05-02 05:45:00,
2013-05-02 06:50:00,33.2,32.0,30.18,ESE,103,0.0,0.0,95,0.00,,,0.00,WeatherDisplay:10.37,2013-05-02 05:50:00,
2013-05-02 06:55:00,33.9,32.6,30.18,ESE,103,0.0,0.0,95,0.00,,,0.00,WeatherDisplay:10.37,2013-05-02 05:55:00,
2013-05-02 07:00:00,35.0,34.0,30.18,ESE,103,0.0,0.0,96,0.00,,,0.00,WeatherDisplay:10.37,2013-05-02 06:00:00,
2013-05-02 07:05:00,36.2,35.1,30.19,ESE,103,0.0,0.0,96,0.00,,,0.00,WeatherDisplay:10.37,2013-05-02 06:05:00,
2013-05-02 07:10:00,37.3,36.0,30.19,ESE,103,0.0,0.0,95,0.00,,,0.00,WeatherDisplay:10.37,2013-05-02 06:10:00,
2013-05-02 07:15:00,38.1,36.5,30.19,ESE,103,0.0,1.0,94,0.00,,,0.00,WeatherDisplay:10.37,2013-05-02 06:15:00,
2013-05-02 07:20:00,39.0,36.8,30.18,ESE,103,1.0,2.0,92,0.00,,,0.00,WeatherDisplay:10.37,2013-05-02 06:20:00,
2013-05-02 07:25:00,39.8,36.8,30.18,ESE,103,1.0,4.0,89,0.00,,,0.00,WeatherDisplay:10.37,2013-05-02 06:25:00,
2013-05-02 07:30:00,40.5,36.7,30.18,ESE,102,0.0,4.0,86,0.00,,,0.00,WeatherDisplay:10.37,2013-05-02 06:30:00,
2013-05-02 07:40:00,42.2,36.5,30.20,NE,49,5.0,6.0,80,0.00,,,0.00,WeatherDisplay:10.37,2013-05-02 06:40:00,
2013-05-02 07:45:00,43.1,36.7,30.20,NNE,23,3.0,5.0,78,0.00,,,0.00,WeatherDisplay:10.37,2013-05-02 06:45:00,
2013-05-02 07:50:00,43.9,36.5,30.20,NNE,15,2.0,7.0,75,0.00,,,0.00,WeatherDisplay:10.37,2013-05-02 06:50:00,
2013-05-02 07:55:00,44.6,36.5,30.20,NNE,14,5.0,7.0,73,0.00,,,0.00,WeatherDisplay:10.37,2013-05-02 06:55:00,
2013-05-02 08:00:00,45.3,36.5,30.20,North,11,5.0,6.0,71,0.00,,,0.00,WeatherDisplay:10.37,2013-05-02 07:00:00,
2013-05-02 08:05:00,46.0,36.4,30.20,North,10,5.0,5.0,69,0.00,,,0.00,WeatherDisplay:10.37,2013-05-02 07:05:00,
2013-05-02 08:10:00,46.7,36.7,30.20,North,10,0.0,6.0,68,0.00,,,0.00,WeatherDisplay:10.37,2013-05-02 07:10:00,
2013-05-02 08:15:00,47.4,37.0,30.20,North,10,1.0,4.0,67,0.00,,,0.00,WeatherDisplay:10.37,2013-05-02 07:15:00,
2013-05-02 08:20:00,48.0,36.8,30.20,North,9,2.0,5.0,65,0.00,,,0.00,WeatherDisplay:10.37,2013-05-02 07:20:00,
2013-05-02 08:25:00,48.7,34.1,30.20,NNE,12,2.0,8.0,57,0.00,,,0.00,WeatherDisplay:10.37,2013-05-02 07:25:00,
2013-05-02 08:30:00,49.5,34.8,30.20,North,11,2.0,9.0,57,0.00,,,0.00,WeatherDisplay:10.37,2013-05-02 07:30:00,
2013-05-02 08:40:00,50.8,30.7,30.20,NE,36,2.0,9.0,46,0.00,,,0.00,WeatherDisplay:10.37,2013-05-02 07:40:00,
2013-05-02 08:45:00,51.2,30.0,30.20,ENE,78,1.0,7.0,44,0.00,,,0.00,WeatherDisplay:10.37,2013-05-02 07:45:00,
2013-05-02 08:50:00,51.7,29.9,30.20,ENE,60,1.0,8.0,43,0.00,,,0.00,WeatherDisplay:10.37,2013-05-02 07:50:00,
2013-05-02 08:55:00,52.0,28.4,30.20,ENE,69,5.0,10.0,40,0.00,,,0.00,WeatherDisplay:10.37,2013-05-02 07:55:00,
2013-05-02 09:00:00,52.2,28.6,30.20,ENE,77,3.0,12.0,40,0.00,,,0.00,WeatherDisplay:10.37,2013-05-02 08:00:00,
2013-05-02 09:05:00,52.5,29.4,30.20,NE,42,2.0,7.0,41,0.00,,,0.00,WeatherDisplay:10.37,2013-05-02 08:05:00,
2013-05-02 09:10:00,52.8,27.9,30.20,NE,46,2.0,10.0,38,0.00,,,0.00,WeatherDisplay:10.37,2013-05-02 08:10:00,
2013-05-02 09:15:00,52.8,28.5,30.20,NE,46,6.0,12.0,39,0.00,,,0.00,WeatherDisplay:10.37,2013-05-02 08:15:00,
2013-05-02 09:20:00,53.1,28.1,30.20,NNE,19,7.0,14.0,38,0.00,,,0.00,WeatherDisplay:10.37,2013-05-02 08:20:00,
2013-05-02 09:25:00,53.3,27.6,30.20,North,9,6.0,13.0,37,0.00,,,0.00,WeatherDisplay:10.37,2013-05-02 08:25:00,
2013-05-02 09:30:00,53.5,27.9,30.20,North,10,2.0,13.0,37,0.00,,,0.00,WeatherDisplay:10.37,2013-05-02 08:30:00,
2013-05-02 09:40:00,54.1,28.4,30.20,NNE,28,5.0,12.0,37,0.00,,,0.00,WeatherDisplay:10.37,2013-05-02 08:40:00,
2013-05-02 09:45:00,54.2,29.1,30.20,NE,47,2.0,8.0,38,0.00,,,0.00,WeatherDisplay:10.37,2013-05-02 08:45:00,
2013-05-02 09:50:00,54.3,29.2,30.20,ENE,67,5.0,9.0,38,0.00,,,0.00,WeatherDisplay:10.37,2013-05-02 08:50:00,
2013-05-02 09:55:00,54.4,28.7,30.20,ENE,78,3.0,10.0,37,0.00,,,0.00,WeatherDisplay:10.37,2013-05-02 08:55:00,
2013-05-02 10:00:00,54.7,29.6,30.20,NE,41,7.0,14.0,38,0.00,,,0.00,WeatherDisplay:10.37,2013-05-02 09:00:00,
2013-05-02 10:10:00,54.6,28.2,30.20,East,80,3.0,10.0,36,0.00,,,0.00,WeatherDisplay:10.37,2013-05-02 09:10:00,
2013-05-02 10:15:00,54.6,28.8,30.20,NE,46,5.0,12.0,37,0.00,,,0.00,WeatherDisplay:10.37,2013-05-02 09:15:00,
2013-05-02 10:20:00,54.9,28.4,30.20,North,11,5.0,12.0,36,0.00,,,0.00,WeatherDisplay:10.37,2013-05-02 09:20:00,
2013-05-02 10:25:00,55.4,28.9,30.20,NNE,18,1.0,12.0,36,0.00,,,0.00,WeatherDisplay:10.37,2013-05-02 09:25:00,
2013-05-02 10:30:00,55.7,27.7,30.20,NE,46,5.0,12.0,34,0.00,,,0.00,WeatherDisplay:10.37,2013-05-02 09:30:00,
2013-05-02 10:40:00,55.9,27.9,30.20,NE,45,3.0,12.0,34,0.00,,,0.00,WeatherDisplay:10.37,2013-05-02 09:40:00,
2013-05-02 10:45:00,56.0,27.3,30.20,NE,56,5.0,10.0,33,0.00,,,0.00,WeatherDisplay:10.37,2013-05-02 09:45:00,
2013-05-02 10:50:00,56.2,26.7,30.20,ENE,78,7.0,13.0,32,0.00,,,0.00,WeatherDisplay:10.37,2013-05-02 09:50:00,
2013-05-02 10:55:00,56.1,26.6,30.20,East,99,7.0,13.0,32,0.00,,,0.00,WeatherDisplay:10.37,2013-05-02 09:55:00,
2013-05-02 11:00:00,56.3,29.6,30.20,East,90,3.0,9.0,36,0.00,,,0.00,WeatherDisplay:10.37,2013-05-02 10:00:00,
2013-05-02 11:10:00,56.9,28.1,30.20,East,83,3.0,16.0,33,0.00,,,0.00,WeatherDisplay:10.37,2013-05-02 10:10:00,
2013-05-02 11:15:00,57.2,28.3,30.20,East,85,6.0,16.0,33,0.00,,,0.00,WeatherDisplay:10.37,2013-05-02 10:15:00,
2013-05-02 11:20:00,57.3,26.9,30.20,East,87,5.0,16.0,31,0.00,,,0.00,WeatherDisplay:10.37,2013-05-02 10:20:00,
2013-05-02 11:25:00,57.5,28.6,30.20,East,83,6.0,16.0,33,0.00,,,0.00,WeatherDisplay:10.37,2013-05-02 10:25:00,
2013-05-02 11:30:00,57.6,29.4,30.20,ENE,72,5.0,16.0,34,0.00,,,0.00,WeatherDisplay:10.37,2013-05-02 10:30:00,
2013-05-02 11:40:00,58.0,30.5,30.19,NE,35,5.0,16.0,35,0.00,,,0.00,WeatherDisplay:10.37,2013-05-02 10:40:00,
2013-05-02 11:45:00,58.4,29.4,30.19,NE,39,3.0,16.0,33,0.00,,,0.00,WeatherDisplay:10.37,2013-05-02 10:45:00,
2013-05-02 11:50:00,58.7,28.1,30.19,ENE,73,5.0,16.0,31,0.00,,,0.00,WeatherDisplay:10.37,2013-05-02 10:50:00,
2013-05-02 11:55:00,58.9,29.9,30.19,NE,39,3.0,16.0,33,0.00,,,0.00,WeatherDisplay:10.37,2013-05-02 10:55:00,
2013-05-02 12:00:00,59.4,30.3,30.19,NE,42,6.0,16.0,33,0.00,,,0.00,WeatherDisplay:10.37,2013-05-02 11:00:00,
2013-05-02 12:05:00,59.5,30.4,30.18,ENE,73,3.0,11.0,33,0.00,,,0.00,WeatherDisplay:10.37,2013-05-02 11:05:00,
2013-05-02 12:10:00,59.7,29.8,30.18,ENE,59,6.0,16.0,32,0.00,,,0.00,WeatherDisplay:10.37,2013-05-02 11:10:00,
2013-05-02 12:15:00,59.8,31.3,30.18,NE,52,3.0,16.0,34,0.00,,,0.00,WeatherDisplay:10.37,2013-05-02 11:15:00,
2013-05-02 12:20:00,59.9,29.9,30.18,ENE,60,3.0,16.0,32,0.00,,,0.00,WeatherDisplay:10.37,2013-05-02 11:20:00,
2013-05-02 12:25:00,60.0,28.4,30.18,ENE,76,6.0,16.0,30,0.00,,,0.00,WeatherDisplay:10.37,2013-05-02 11:25:00,
2013-05-02 12:30:00,60.0,27.6,30.18,East,87,6.0,17.0,29,0.00,,,0.00,WeatherDisplay:10.37,2013-05-02 11:30:00,
2013-05-02 12:35:00,60.1,28.5,30.18,East,80,5.0,17.0,30,0.00,,,0.00,WeatherDisplay:10.37,2013-05-02 11:35:00,
2013-05-02 12:40:00,60.2,27.8,30.18,ENE,65,5.0,17.0,29,0.00,,,0.00,WeatherDisplay:10.37,2013-05-02 11:40:00,
2013-05-02 12:50:00,60.9,28.4,30.18,ENE,72,3.0,17.0,29,0.00,,,0.00,WeatherDisplay:10.37,2013-05-02 11:50:00,
2013-05-02 12:55:00,61.1,27.7,30.18,NE,34,5.0,17.0,28,0.00,,,0.00,WeatherDisplay:10.37,2013-05-02 11:55:00,
2013-05-02 13:00:00,61.6,27.3,30.18,NNE,25,3.0,17.0,27,0.00,,,0.00,WeatherDisplay:10.37,2013-05-02 12:00:00,
2013-05-02 13:05:00,61.7,27.4,30.18,NNE,25,3.0,14.0,27,0.00,,,0.00,WeatherDisplay:10.37,2013-05-02 12:05:00,
2013-05-02 13:10:00,61.6,26.3,30.18,NE,34,3.0,17.0,26,0.00,,,0.00,WeatherDisplay:10.37,2013-05-02 12:10:00,
2013-05-02 13:15:00,61.6,29.0,30.18,ENE,60,2.0,17.0,29,0.00,,,0.00,WeatherDisplay:10.37,2013-05-02 12:15:00,
2013-05-02 13:20:00,62.0,29.4,30.17,NNE,21,6.0,17.0,29,0.00,,,0.00,WeatherDisplay:10.37,2013-05-02 12:20:00,
2013-05-02 13:25:00,62.3,27.0,30.17,NNE,18,6.0,17.0,26,0.00,,,0.00,WeatherDisplay:10.37,2013-05-02 12:25:00,
2013-05-02 13:30:00,62.6,27.2,30.17,NNE,20,1.0,17.0,26,0.00,,,0.00,WeatherDisplay:10.37,2013-05-02 12:30:00,
2013-05-02 13:35:00,62.7,28.2,30.17,NE,45,3.0,17.0,27,0.00,,,0.00,WeatherDisplay:10.37,2013-05-02 12:35:00,
2013-05-02 13:40:00,62.8,24.4,30.17,East,94,8.0,17.0,23,0.00,,,0.00,WeatherDisplay:10.37,2013-05-02 12:40:00,
2013-05-02 13:45:00,62.2,26.9,30.17,East,100,2.0,17.0,26,0.00,,,0.00,WeatherDisplay:10.37,2013-05-02 12:45:00,
2013-05-02 13:50:00,62.2,25.9,30.17,NE,51,3.0,17.0,25,0.00,,,0.00,WeatherDisplay:10.37,2013-05-02 12:50:00,
2013-05-02 13:55:00,62.3,24.0,30.17,NE,56,5.0,17.0,23,0.00,,,0.00,WeatherDisplay:10.37,2013-05-02 12:55:00,
2013-05-02 14:00:00,62.0,25.8,30.17,East,100,6.0,17.0,25,0.00,,,0.00,WeatherDisplay:10.37,2013-05-02 13:00:00,
2013-05-02 14:05:00,62.0,24.7,30.17,NE,53,3.0,12.0,24,0.00,,,0.00,WeatherDisplay:10.37,2013-05-02 13:05:00,
2013-05-02 14:10:00,62.5,24.1,30.17,NNE,18,5.0,17.0,23,0.00,,,0.00,WeatherDisplay:10.37,2013-05-02 13:10:00,
2013-05-02 14:15:00,62.7,24.3,30.17,ENE,57,3.0,17.0,23,0.00,,,0.00,WeatherDisplay:10.37,2013-05-02 13:15:00,
2013-05-02 14:20:00,62.8,25.4,30.17,East,80,2.0,17.0,24,0.00,,,0.00,WeatherDisplay:10.37,2013-05-02 13:20:00,
2013-05-02 14:25:00,62.8,23.3,30.17,ENE,58,1.0,17.0,22,0.00,,,0.00,WeatherDisplay:10.37,2013-05-02 13:25:00,
2013-05-02 14:30:00,62.7,24.3,30.17,East,94,2.0,17.0,23,0.00,,,0.00,WeatherDisplay:10.37,2013-05-02 13:30:00,
2013-05-02 14:35:00,62.9,22.4,30.16,ESE,107,6.0,17.0,21,0.00,,,0.00,WeatherDisplay:10.37,2013-05-02 13:35:00,
2013-05-02 14:40:00,62.7,24.3,30.16,ESE,105,1.0,17.0,23,0.00,,,0.00,WeatherDisplay:10.37,2013-05-02 13:40:00,
2013-05-02 14:45:00,62.9,26.5,30.16,ESE,107,5.0,17.0,25,0.00,,,0.00,WeatherDisplay:10.37,2013-05-02 13:45:00,
2013-05-02 14:50:00,62.9,25.5,30.16,ESE,104,2.0,17.0,24,0.00,,,0.00,WeatherDisplay:10.37,2013-05-02 13:50:00,
2013-05-02 14:55:00,62.9,24.5,30.16,ESE,109,7.0,17.0,23,0.00,,,0.00,WeatherDisplay:10.37,2013-05-02 13:55:00,
2013-05-02 15:00:00,62.7,26.3,30.16,ESE,113,3.0,17.0,25,0.00,,,0.00,WeatherDisplay:10.37,2013-05-02 14:00:00,
2013-05-02 15:05:00,62.9,25.5,30.15,East,95,2.0,7.0,24,0.00,,,0.00,WeatherDisplay:10.37,2013-05-02 14:05:00,
2013-05-02 15:10:00,63.0,26.6,30.15,NE,38,8.0,17.0,25,0.00,,,0.00,WeatherDisplay:10.37,2013-05-02 14:10:00,
2013-05-02 15:15:00,63.6,26.1,30.15,NNE,16,2.0,17.0,24,0.00,,,0.00,WeatherDisplay:10.37,2013-05-02 14:15:00,
2013-05-02 15:20:00,63.6,26.1,30.15,NE,53,3.0,17.0,24,0.00,,,0.00,WeatherDisplay:10.37,2013-05-02 14:20:00,
2013-05-02 15:25:00,63.1,24.7,30.15,ESE,111,1.0,17.0,23,0.00,,,0.00,WeatherDisplay:10.37,2013-05-02 14:25:00,
2013-05-02 15:30:00,63.4,26.9,30.15,ESE,119,2.0,17.0,25,0.00,,,0.00,WeatherDisplay:10.37,2013-05-02 14:30:00,
2013-05-02 15:35:00,63.7,27.2,30.15,East,96,5.0,17.0,25,0.00,,,0.00,WeatherDisplay:10.37,2013-05-02 14:35:00,
2013-05-02 15:40:00,63.8,25.3,30.15,NE,46,3.0,17.0,23,0.00,,,0.00,WeatherDisplay:10.37,2013-05-02 14:40:00,
2013-05-02 15:45:00,63.7,26.2,30.15,NE,41,3.0,17.0,24,0.00,,,0.00,WeatherDisplay:10.37,2013-05-02 14:45:00,
2013-05-02 15:50:00,63.8,29.2,30.15,NNE,25,6.0,17.0,27,0.00,,,0.00,WeatherDisplay:10.37,2013-05-02 14:50:00,
2013-05-02 15:55:00,64.2,25.6,30.15,NE,52,2.0,17.0,23,0.00,,,0.00,WeatherDisplay:10.37,2013-05-02 14:55:00,
2013-05-02 16:00:00,64.0,24.4,30.15,East,83,1.0,17.0,22,0.00,,,0.00,WeatherDisplay:10.37,2013-05-02 15:00:00,
2013-05-02 16:10:00,63.9,27.4,30.14,East,88,1.0,17.0,25,0.00,,,0.00,WeatherDisplay:10.37,2013-05-02 15:10:00,
2013-05-02 16:15:00,63.8,23.1,30.14,East,91,0.0,17.0,21,0.00,,,0.00,WeatherDisplay:10.37,2013-05-02 15:15:00,
2013-05-02 16:20:00,64.0,27.4,30.14,East,86,1.0,17.0,25,0.00,,,0.00,WeatherDisplay:10.37,2013-05-02 15:20:00,
2013-05-02 16:25:00,64.3,26.7,30.14,ENE,78,1.0,17.0,24,0.00,,,0.00,WeatherDisplay:10.37,2013-05-02 15:25:00,
2013-05-02 16:30:00,64.8,28.1,30.14,NNE,32,5.0,17.0,25,0.00,,,0.00,WeatherDisplay:10.37,2013-05-02 15:30:00,
2013-05-02 16:35:00,65.0,27.3,30.14,NE,36,3.0,17.0,24,0.00,,,0.00,WeatherDisplay:10.37,2013-05-02 15:35:00,
2013-05-02 16:40:00,64.8,28.1,30.14,NE,37,6.0,17.0,25,0.00,,,0.00,WeatherDisplay:10.37,2013-05-02 15:40:00,
2013-05-02 16:45:00,64.7,26.0,30.14,NNE,18,1.0,17.0,23,0.00,,,0.00,WeatherDisplay:10.37,2013-05-02 15:45:00,
2013-05-02 16:50:00,64.3,24.6,30.14,NNE,23,5.0,17.0,22,0.00,,,0.00,WeatherDisplay:10.37,2013-05-02 15:50:00,
2013-05-02 16:55:00,64.0,24.3,30.14,NNE,25,0.0,17.0,22,0.00,,,0.00,WeatherDisplay:10.37,2013-05-02 15:55:00,
2013-05-02 17:00:00,63.6,26.1,30.14,NNE,22,1.0,17.0,24,0.00,,,0.00,WeatherDisplay:10.37,2013-05-02 16:00:00,
2013-05-02 17:05:00,63.4,28.8,30.14,NNE,24,2.0,6.0,27,0.00,,,0.00,WeatherDisplay:10.37,2013-05-02 16:05:00,
2013-05-02 17:10:00,63.4,27.8,30.14,NNE,18,3.0,17.0,26,0.00,,,0.00,WeatherDisplay:10.37,2013-05-02 16:10:00,
2013-05-02 17:15:00,63.3,27.8,30.14,NNE,14,5.0,17.0,26,0.00,,,0.00,WeatherDisplay:10.37,2013-05-02 16:15:00,
2013-05-02 17:20:00,63.2,26.8,30.14,NE,35,2.0,17.0,25,0.00,,,0.00,WeatherDisplay:10.37,2013-05-02 16:20:00,
2013-05-02 17:25:00,62.9,25.5,30.14,ENE,68,2.0,17.0,24,0.00,,,0.00,WeatherDisplay:10.37,2013-05-02 16:25:00,
2013-05-02 17:30:00,62.7,27.3,30.14,ENE,74,0.0,17.0,26,0.00,,,0.00,WeatherDisplay:10.37,2013-05-02 16:30:00,
2013-05-02 17:40:00,62.3,26.0,30.14,NNE,31,1.0,17.0,25,0.00,,,0.00,WeatherDisplay:10.37,2013-05-02 16:40:00,
2013-05-02 17:45:00,62.2,27.8,30.14,North,350,2.0,17.0,27,0.00,,,0.00,WeatherDisplay:10.37,2013-05-02 16:45:00,
2013-05-02 17:50:00,62.2,26.9,30.14,North,0,5.0,17.0,26,0.00,,,0.00,WeatherDisplay:10.37,2013-05-02 16:50:00,
2013-05-02 17:55:00,62.2,25.9,30.14,North,11,6.0,17.0,25,0.00,,,0.00,WeatherDisplay:10.37,2013-05-02 16:55:00,
2013-05-02 18:00:00,62.1,23.8,30.14,North,6,1.0,17.0,23,0.00,,,0.00,WeatherDisplay:10.37,2013-05-02 17:00:00,
2013-05-02 18:05:00,62.0,26.7,30.14,North,356,3.0,6.0,26,0.00,,,0.00,WeatherDisplay:10.37,2013-05-02 17:05:00,
2013-05-02 18:10:00,62.0,26.7,30.14,North,357,5.0,17.0,26,0.00,,,0.00,WeatherDisplay:10.37,2013-05-02 17:10:00,
2013-05-02 18:15:00,62.0,25.7,30.14,North,3,6.0,17.0,25,0.00,,,0.00,WeatherDisplay:10.37,2013-05-02 17:15:00,
2013-05-02 18:20:00,61.8,27.4,30.14,North,357,5.0,17.0,27,0.00,,,0.00,WeatherDisplay:10.37,2013-05-02 17:20:00,
2013-05-02 18:25:00,61.6,28.1,30.14,NNW,341,2.0,17.0,28,0.00,,,0.00,WeatherDisplay:10.37,2013-05-02 17:25:00,
2013-05-02 18:30:00,61.5,28.1,30.14,NNW,332,3.0,17.0,28,0.00,,,0.00,WeatherDisplay:10.37,2013-05-02 17:30:00,
2013-05-02 18:35:00,61.4,27.9,30.13,NNW,341,3.0,17.0,28,0.00,,,0.00,WeatherDisplay:10.37,2013-05-02 17:35:00,
2013-05-02 18:40:00,61.2,28.7,30.13,NNW,344,2.0,17.0,29,0.00,,,0.00,WeatherDisplay:10.37,2013-05-02 17:40:00,
2013-05-02 18:45:00,61.1,27.7,30.13,NNW,348,3.0,17.0,28,0.00,,,0.00,WeatherDisplay:10.37,2013-05-02 17:45:00,
2013-05-02 18:50:00,61.0,26.7,30.13,North,5,6.0,9.0,27,0.00,,,0.00,WeatherDisplay:10.37,2013-05-02 17:50:00,
2013-05-02 18:55:00,60.8,27.5,30.13,NNE,14,2.0,17.0,28,0.00,,,0.00,WeatherDisplay:10.37,2013-05-02 17:55:00,
2013-05-02 19:00:00,60.7,27.4,30.13,NNE,18,3.0,17.0,28,0.00,,,0.00,WeatherDisplay:10.37,2013-05-02 18:00:00,
2013-05-02 19:05:00,60.5,27.2,30.13,North,359,1.0,6.0,28,0.00,,,0.00,WeatherDisplay:10.37,2013-05-02 18:05:00,
2013-05-02 19:10:00,60.4,27.9,30.13,North,358,5.0,17.0,29,0.00,,,0.00,WeatherDisplay:10.37,2013-05-02 18:10:00,
2013-05-02 19:15:00,60.2,27.8,30.13,North,10,1.0,17.0,29,0.00,,,0.00,WeatherDisplay:10.37,2013-05-02 18:15:00,
2013-05-02 19:20:00,60.0,27.6,30.13,NNE,15,3.0,17.0,29,0.00,,,0.00,WeatherDisplay:10.37,2013-05-02 18:20:00,
2013-05-02 19:25:00,59.8,26.6,30.13,NNE,16,2.0,17.0,28,0.00,,,0.00,WeatherDisplay:10.37,2013-05-02 18:25:00,
2013-05-02 19:30:00,59.6,26.4,30.13,NNE,12,3.0,17.0,28,0.00,,,0.00,WeatherDisplay:10.37,2013-05-02 18:30:00,
2013-05-02 19:35:00,59.5,27.2,30.14,NNE,12,2.0,17.0,29,0.00,,,0.00,WeatherDisplay:10.37,2013-05-02 18:35:00,
2013-05-02 19:40:00,59.3,27.0,30.14,NNE,12,3.0,17.0,29,0.00,,,0.00,WeatherDisplay:10.37,2013-05-02 18:40:00,
2013-05-02 19:45:00,59.1,26.9,30.14,North,10,2.0,17.0,29,0.00,,,0.00,WeatherDisplay:10.37,2013-05-02 18:45:00,
2013-05-02 19:50:00,58.9,28.3,30.14,North,10,0.0,17.0,31,0.00,,,0.00,WeatherDisplay:10.37,2013-05-02 18:50:00,
2013-05-02 19:55:00,58.7,28.1,30.14,North,10,2.0,17.0,31,0.00,,,0.00,WeatherDisplay:10.37,2013-05-02 18:55:00,
2013-05-02 20:00:00,58.4,28.6,30.14,North,10,1.0,17.0,32,0.00,,,0.00,WeatherDisplay:10.37,2013-05-02 19:00:00,
2013-05-02 20:10:00,57.6,30.8,30.14,NNE,12,2.0,17.0,36,0.00,,,0.00,WeatherDisplay:10.37,2013-05-02 19:10:00,
2013-05-02 20:15:00,56.5,32.5,30.14,ENE,76,3.0,17.0,40,0.00,,,0.00,WeatherDisplay:10.37,2013-05-02 19:15:00,
2013-05-02 20:20:00,55.7,35.3,30.15,ESE,103,1.0,5.0,46,0.00,,,0.00,WeatherDisplay:10.37,2013-05-02 19:20:00,
2013-05-02 20:25:00,55.2,36.4,30.15,ESE,120,2.0,17.0,49,0.00,,,0.00,WeatherDisplay:10.37,2013-05-02 19:25:00,
2013-05-02 20:30:00,54.7,36.9,30.15,SE,124,2.0,17.0,51,0.00,,,0.00,WeatherDisplay:10.37,2013-05-02 19:30:00,
2013-05-02 20:35:00,54.3,36.6,30.15,SE,125,2.0,4.0,51,0.00,,,0.00,WeatherDisplay:10.37,2013-05-02 19:35:00,
2013-05-02 20:40:00,54.2,36.9,30.15,SE,124,2.0,17.0,52,0.00,,,0.00,WeatherDisplay:10.37,2013-05-02 19:40:00,
2013-05-02 20:45:00,54.1,37.3,30.15,ESE,123,1.0,17.0,53,0.00,,,0.00,WeatherDisplay:10.37,2013-05-02 19:45:00,
2013-05-02 20:50:00,53.8,37.1,30.15,ESE,123,1.0,17.0,53,0.00,,,0.00,WeatherDisplay:10.37,2013-05-02 19:50:00,
2013-05-02 20:55:00,53.6,37.3,30.15,ESE,123,0.0,2.0,54,0.00,,,0.00,WeatherDisplay:10.37,2013-05-02 19:55:00,
2013-05-02 21:00:00,53.2,37.9,30.15,ESE,123,0.0,17.0,56,0.00,,,0.00,WeatherDisplay:10.37,2013-05-02 20:00:00,
2013-05-02 21:05:00,52.5,37.7,30.15,ESE,123,0.0,1.0,57,0.00,,,0.00,WeatherDisplay:10.37,2013-05-02 20:05:00,
2013-05-02 21:10:00,51.7,37.9,30.15,ESE,123,0.0,17.0,59,0.00,,,0.00,WeatherDisplay:10.37,2013-05-02 20:10:00,
2013-05-02 21:15:00,50.9,37.9,30.15,ESE,123,0.0,17.0,61,0.00,,,0.00,WeatherDisplay:10.37,2013-05-02 20:15:00,
2013-05-02 21:20:00,50.0,37.5,30.17,ESE,123,0.0,17.0,62,0.00,,,0.00,WeatherDisplay:10.37,2013-05-02 20:20:00,
2013-05-02 21:25:00,49.0,37.8,30.17,ESE,123,0.0,17.0,65,0.00,,,0.00,WeatherDisplay:10.37,2013-05-02 20:25:00,
2013-05-02 21:30:00,48.1,37.3,30.16,ESE,123,0.0,17.0,66,0.00,,,0.00,WeatherDisplay:10.37,2013-05-02 20:30:00,
2013-05-02 21:35:00,47.4,37.3,30.17,ESE,123,0.0,17.0,68,0.00,,,0.00,WeatherDisplay:10.37,2013-05-02 20:35:00,
2013-05-02 21:40:00,46.9,37.6,30.17,ESE,123,0.0,17.0,70,0.00,,,0.00,WeatherDisplay:10.37,2013-05-02 20:40:00,
2013-05-02 21:45:00,46.2,37.3,30.17,ESE,123,0.0,17.0,71,0.00,,,0.00,WeatherDisplay:10.37,2013-05-02 20:45:00,
2013-05-02 21:50:00,45.6,36.7,30.17,ESE,123,0.0,17.0,71,0.00,,,0.00,WeatherDisplay:10.37,2013-05-02 20:50:00,
2013-05-02 21:55:00,45.1,36.6,30.17,ESE,123,0.0,17.0,72,0.00,,,0.00,WeatherDisplay:10.37,2013-05-02 20:55:00,
2013-05-02 22:00:00,44.6,36.5,30.17,ESE,123,0.0,17.0,73,0.00,,,0.00,WeatherDisplay:10.37,2013-05-02 21:00:00,
2013-05-02 22:10:00,43.6,36.5,30.17,ESE,123,0.0,17.0,76,0.00,,,0.00,WeatherDisplay:10.37,2013-05-02 21:10:00,
2013-05-02 22:15:00,43.1,36.0,30.17,ESE,123,0.0,17.0,76,0.00,,,0.00,WeatherDisplay:10.37,2013-05-02 21:15:00,
2013-05-02 22:20:00,42.6,35.8,30.17,ESE,123,0.0,17.0,77,0.00,,,0.00,WeatherDisplay:10.37,2013-05-02 21:20:00,
2013-05-02 22:25:00,42.1,35.7,30.17,ESE,123,0.0,17.0,78,0.00,,,0.00,WeatherDisplay:10.37,2013-05-02 21:25:00,
2013-05-02 22:30:00,41.8,36.1,30.17,ESE,123,0.0,17.0,80,0.00,,,0.00,WeatherDisplay:10.37,2013-05-02 21:30:00,
2013-05-02 22:35:00,41.5,36.1,30.17,ESE,123,0.0,17.0,81,0.00,,,0.00,WeatherDisplay:10.37,2013-05-02 21:35:00,
2013-05-02 22:40:00,41.2,35.5,30.17,ESE,123,0.0,17.0,80,0.00,,,0.00,WeatherDisplay:10.37,2013-05-02 21:40:00,
2013-05-02 22:45:00,40.9,35.5,30.17,ESE,123,0.0,17.0,81,0.00,,,0.00,WeatherDisplay:10.37,2013-05-02 21:45:00,
2013-05-02 22:50:00,40.6,35.2,30.17,ESE,123,0.0,1.0,81,0.00,,,0.00,WeatherDisplay:10.37,2013-05-02 21:50:00,
2013-05-02 22:55:00,40.4,35.3,30.17,ESE,123,0.0,17.0,82,0.00,,,0.00,WeatherDisplay:10.37,2013-05-02 21:55:00,
2013-05-02 23:00:00,40.2,35.4,30.17,ESE,123,0.0,17.0,83,0.00,,,0.00,WeatherDisplay:10.37,2013-05-02 22:00:00,
2013-05-02 23:05:00,40.0,35.3,30.17,ESE,123,1.0,2.0,83,0.00,,,0.00,WeatherDisplay:10.37,2013-05-02 22:05:00,
2013-05-02 23:10:00,39.8,35.0,30.17,ESE,123,0.0,17.0,83,0.00,,,0.00,WeatherDisplay:10.37,2013-05-02 22:10:00,
2013-05-02 23:15:00,39.6,35.2,30.17,ESE,123,0.0,17.0,84,0.00,,,0.00,WeatherDisplay:10.37,2013-05-02 22:15:00,
2013-05-02 23:20:00,39.5,35.1,30.17,ESE,123,0.0,17.0,84,0.00,,,0.00,WeatherDisplay:10.37,2013-05-02 22:20:00,
2013-05-02 23:25:00,39.3,34.9,30.17,ESE,123,0.0,17.0,84,0.00,,,0.00,WeatherDisplay:10.37,2013-05-02 22:25:00,
2013-05-02 23:30:00,39.1,34.7,30.17,ESE,123,0.0,17.0,84,0.00,,,0.00,WeatherDisplay:10.37,2013-05-02 22:30:00,
2013-05-02 23:40:00,38.7,34.6,30.17,ESE,123,0.0,17.0,85,0.00,,,0.00,WeatherDisplay:10.37,2013-05-02 22:40:00,
2013-05-02 23:45:00,38.6,34.5,30.17,ESE,123,0.0,17.0,85,0.00,,,0.00,WeatherDisplay:10.37,2013-05-02 22:45:00,
2013-05-02 23:50:00,38.4,34.3,30.17,ESE,123,0.0,17.0,85,0.00,,,0.00,WeatherDisplay:10.37,2013-05-02 22:50:00,
2013-05-02 23:55:00,38.2,34.1,30.17,ESE,123,0.0,17.0,85,0.00,,,0.00,WeatherDisplay:10.37,2013-05-02 22:55:00,